Tracking 19709 objects as of 18-Jun-2019
HD Live streaming from Space Station
objects crossing your sky now

SL-14 R/B

Track SL-14 R/B now!
10-day predictions


NORAD ID: 21034
Int'l Code: 1990-114G
Perigee: 1,418.2 km
Apogee: 1,479.1 km
Inclination: 82.6 °
Period: 114.7 minutes
Semi major axis: 7819 km
RCS: 5.0163 m2 (large)
Launch date: December 22, 1990
Source: Commonwealth of Independent States (former USSR) (CIS)
Launch site: PLESETSK MISSILE AND SPACE COMPLEX (PKMTR)

Note: This is a ROCKET BODY
aabbcc
Your satellite tracking list
Your tracking list is empty




NASA's NSSDC Master Catalog

Two Line Element Set (TLE):
1 21034U 90114G   19168.87655053 -.00000005 +00000-0 -93512-4 0  9990
2 21034 082.5650 143.9651 0038993 337.3739 080.4118 12.55513796305389
Source of the keplerian elements: AFSPC